Погода в Солнцево

Россия / Курская область     51°24′58″N   36°45′18″E
темп.,
°C
ветер,
м/с
пор.,
м/с
влажн.,
%
обл.,
%
осадки,
мм/ч
давл.,
гПа
погр.,
м
27 ноября, сб
сб2700:00−1ююв5128898 0.0 1015289
03:00−1ююв51395100 0.0 1013313
06:000юв61688100 0.0 1011441
09:00+2ююв81985100 0.0 1009579
12:00+3ююв91887100 0.6 1006833
15:00+3ююв91894100 1.9 1004669
18:00+4ю81694100 0.1 1004507
21:00+5ю61394100 0.1 1004353
28 ноября, вс
вс2800:00+5ю5119692 0.1 1005246
03:00+5ююз4897100 0.1 1005284
06:00+6ююз3794100 0.0 1005184
09:00+5ююз359862 0.0 1008155
12:00+6юз349088 0.0 1008303
15:00+7ююз348891 0.0 1009360
18:00+6ююв5787100 0.0 1010334
21:00+5юв499281 0.0 1009194
29 ноября, пн
пн2900:00+5юв4109696 0.0 1009230
03:00+5юв41097100 0.0 1007213
06:00+6юв41198100 1.9 1005283
09:00+8юв51198100 2.5 1003413
12:00+9ююв61397100 0.7 1000605
15:00+10ююв81591100 0.9 996831
18:00+10ю81695100 2.6 991919
21:00+11ю81692100 5.7 988837
30 ноября, вт
вт3000:00+11ююз101789100 8.8 9851111
03:00+7зюз111782100 9.5 9871194
06:00+4зюз101573100 0.0 9911110
09:00+3зюз101665100 0.0 9931321
12:00+4юз915615 0.0 9941206
15:00+3юз9156765 0.0 9941205
18:00+2юз101563100 0.0 9941443
21:00+1юз9157185 0.0 9931046
1 декабря, ср
ср100:000зюз8128581 0.1 9941033
03:00−1зюз61091100 0.3 997864
06:00−2з81280100 0.4 998812
09:00−2з71180100 0.4 999925
12:00−1з6973100 0.1 1001978
15:00−2юз4893100 0.5 1000612
18:00−1юз4109696 1.1 1000678
21:00−1юз4109696 1.3 1001501